ONEWEB-0718, 56081

Orbit data source: Space-Track

ONEWEB-0718, 56081 is a payload satellite owned by One Web (NAA) (UK) in LEO that was launched on Sun, 26 Mar 2023 UTC via a LVM3 launch vehicle from the Sirharikota (SRI). Payloads include a variety of satellites, spacecraft, and rockets equipped with specific instruments for various scientific and technological missions. These include communications satellites like Starlink; space stations such as the ISS; scientific satellites like the Hubble; Earth observation satellites from companies like Planet Labs, Umbra, and HawkEye 360; GPS; miniature CubeSats for education and research; and military/defense satellites.

Loading next visibility...
ONEWEB-0718 details
Identifier
56081, 2023-043AM
Orbit
LEO
Last TLE update16 hours ago
Origin
Flag of UKOne Web (NAA) (UK)
ManufacturerOne Web
MissionOperational Commercial Communications
Bus & MotorARROW, Unknown motor
Mass148 kg wet, ~140 kg dry
Launch date (UTC)
2023-03-26 (2 years ago)
Launch vehicle
LVM3
Launch site
Sirharikota (SRI)
Object type
Payload
Rocket body
Debris
Shape & HBRTrap Box + 2 Pan, 5 m
Radar Cross Section2.032 m², Large (>1 m²)

Expand to show TLE details & history

TLE from 16 hours ago
0 ONEWEB-0718
1 56081U 23043AM  25014.93705371  .00000129  00000-0  30947-3 0  9997
2 56081  87.9078   2.3898 0002287  91.1171 269.0222 13.15549974 88298
Epoch: 2025-01-14T22:29Z
Definitive object data (Epoch: 2025-01-14T22:29:21.44Z)
Latitude0.00004°
Longitude-89.58612°
Altitude1,204.691 km
Speed7.252 km/s
True Right ascension00h 09m 33s
True Declination0° 00' 00"
Sunlit
Object was in daylight at TLE epoch
Visualization TLE readout
Latitude-70.12013°
Longitude-95.48818°
Altitude1,229.651 km
Speed7.238 km/s
Apparent Right ascension02h 04m 24s
Apparent Declination-58° 43' 08"
Sunlit
Object is in daylight
Visualization observer readout
Local Sidereal Time15:14:24
Azimuth155.187° SSE
Elevation-68.156°
Doppler factor1
Orbital elements
Apogee altitude1,200.61 km
Perigee altitude1,197.144 km
Semi-major axis7,577.014 km
Eccentricity0.0002287
Inclination87.9078°
RAAN2.3898°
Arg. of periapsis91.1171°
True anomaly268.996°
Mean anomaly269.0222°
Eccentric anomaly269.0091°
Mean motion3.29076 °/min
BSTAR0.00030947
Orbital period109.4 mins
Loading maneuver chart data...
Loading historical data...
Loading historical data...
Loading historical data...
Loading historical data...
Loading historical data...
Loading historical data...
Loading historical data...

ONEWEB-0718 Visibility forecast

Observer location: undefined°, undefined

Span
Click to sort rows by Start time (UTC) header in descending order
Start Az.
Max El. time (UTC)
Max El. Az.
Max El.
End time (UTC)
End Az.
12 mins2025-01-15 22:19:41.953Z135.494° SSE2025-01-15 22:25:41.953Z78.203° E26.887°2025-01-15 22:31:41.953Z21.28° NNE
12 mins2025-01-16 00:09:41.953Z209.605° SW2025-01-16 00:14:41.953Z271.201° WNW36.222°2025-01-16 00:21:41.953Z348.647° N
9 mins2025-01-16 09:48:41.953Z39.404° NE2025-01-16 09:52:41.953Z81.487° E21.471°2025-01-16 09:57:41.953Z126.158° SE
12 mins2025-01-16 11:36:41.953Z349.491° N2025-01-16 11:42:41.953Z259.335° W41.052°2025-01-16 11:48:41.953Z197.843° SSW
|